Location: Lac Lasalle
(46.0398°N, 74.1576°W)
Time: 06:34:47
(UTC-05:00)

AO-73 - Pass Details

Date: 17 December 2019
Orbit: 581 x 664 km, 97.6° (Epoch: 17 January)

Event Time Altitude Azimuth Distance (km) Brightness Sun altitude
Rises 05:06:06 0° 32° (NNE) 2,832 ? -24.4°
Reaches altitude 10° 05:09:28 10° 62° (ENE) 1,913 ? -23.9°
Maximum altitude 05:11:20 13° 89° (E) 1,730 ? -23.5°
Drops below altitude 10° 05:13:12 10° 116° (ESE) 1,899 ? -23.2°
Sets 05:16:30 0° 145° (SE) 2,790 ? -22.7°
